Tracking 26443 objects as of 4-Dec-2022
HD Live streaming from Space Station
objects crossing your sky now

COSMOS 1408 DEB

Track COSMOS 1408 DEB now!
10-day predictions


NORAD ID: 52246
Int'l Code: 1982-092BXE
Perigee: 428.5 km
Apogee: 502.6 km
Inclination: 82.8 °
Period: 93.8 minutes
Semi major axis: 6836 km
RCS: Unknown
Launch date: September 16, 1982
Source: Commonwealth of Independent States (former USSR) (CIS)
Launch site: PLESETSK MISSILE AND SPACE COMPLEX (PKMTR)

Note: This is SATELLITE DEBRIS
aabbcc
Your satellite tracking list
Your tracking list is empty




NASA's NSSDC Master Catalog

Two Line Element Set (TLE):
1 52246U 82092BXE 22337.36557889  .00030543  00000-0  83117-3 0  9996
2 52246  82.7891 114.2448 0054211  96.3829 264.3593 15.35844636 41237
Source of the keplerian elements: AFSPC